User: anonymous   Login
Location: Dover
(39.1580°N, 75.5250°W)
Time: 06:29:36
(UTC-04:00)
Language:

Cosmos 1437 Rocket - Orbit

View from above orbital plane
View from above orbital plane
View from above satellite
View from above satellite

Ground track
Ground track

The orbit data is extracted from the following two-line orbital elements,

1 13771U 83003B   17178.88514971 +.00001086 +00000-0 +64465-4 0  9994
2 13771 081.1604 350.3367 0039479 332.8578 027.0582 15.09856183875400
Epoch (UTC): 27 June 2017 21:14:36
Eccentricity: 0.0039479
inclination: 81.1604°
perigee height: 509 km
apogee height: 564 km
right ascension of ascending node: 350.3367°
argument of perigee: 332.8578°
revolutions per day: 15.09856183
mean anomaly at epoch: 27.0582°
orbit number at epoch: 87540

The dashed part of the orbit path shows where the satellite is in the earth's shadow,  

DLR